CAPE
3 5 6 4 4 3 2 2 2 0 1 0 0 0 0 0 0 0 0 0 0 0 0 0 2 0 0 0 0 0 0 0 0 0 0 0 0 0 0 0 9 41 162 164 127 107 93
10 3 5 3 3 2 2 1 1 0 0 0 0 0 0 0 0 0 0 0 0 0 1 1 2 0 0 0 0 0 0 0 0 0 0 0 0 0 0 0 3 0 35 128 96 27 71
2 4 1 2 3 2 1 0 0 0 0 0 0 0 0 0 0 0 0 0 0 0 0 2 2 0 0 0 0 0 0 0 0 0 0 0 0 0 0 0 0 0 0 9 0 0 138
7 2 3 2 2 1 0 0 0 0 0 0 0 0 0 0 0 0 0 0 0 0 0 1 1 0 0 0 0 0 0 0 0 0 0 0 0 0 0 0 0 0 0 0 0 0 66
1 2 2 3 2 0 0 0 0 0 0 0 0 0 0 0 0 0 0 0 0 0 0 2 0 0 0 0 0 0 0 0 0 0 0 0 0 0 0 0 0 0 0 0 3 8 46
3 2 3 1 0 0 0 0 0 0 0 0 0 0 0 0 0 0 0 0 0 0 0 0 0 0 0 0 0 0 0 0 0 0 0 0 0 0 0 0 0 0 0 0 6 0 23
7 4 3 2 2 0 0 0 0 0 0 0 0 0 0 0 0 0 0 0 0 0 0 0 0 0 0 0 0 0 0 0 0 0 0 0 0 0 0 0 0 0 0 0 0 0 0
4 2 1 1 1 0 0 0 0 0 0 0 0 0 0 0 0 0 0 0 0 0 0 0 0 0 0 0 0 0 0 0 0 0 0 0 0 0 0 0 0 0 0 0 0 0 0
3 3 1 1 1 0 0 0 0 0 0 0 0 0 0 0 0 0 0 0 0 0 0 0 0 0 0 0 0 0 0 0 0 0 0 0 0 0 0 0 0 0 0 0 0 0 0
3 4 2 0 0 0 0 0 0 0 0 0 0 0 0 0 0 0 0 0 0 0 0 0 0 0 0 0 0 0 0 0 0 0 0 0 0 0 0 0 0 0 0 0 0 0 0
1 3 2 1 0 0 0 0 0 0 0 0 0 0 0 0 0 0 0 0 0 0 0 0 0 0 0 0 0 0 0 0 0 0 0 0 0 0 0 0 0 0 0 0 0 0 0
2 3 3 3 3 0 0 1 1 0 0 0 0 0 0 0 0 0 0 0 0 0 0 0 0 0 0 0 0 0 0 0 0 0 0 0 0 0 0 0 0 0 0 0 0 0 0
3 3 6 5 0 0 0 0 0 0 0 0 0 0 0 0 0 0 0 0 0 0 0 0 0 0 0 0 0 0 0 0 0 0 0 0 0 0 0 0 0 0 0 0 0 0 0
1 7 2 0 0 0 0 0 0 0 0 0 0 0 0 0 0 0 0 0 0 0 0 0 0 0 0 0 0 0 0 0 0 0 0 0 0 0 0 0 0 0 0 0 0 0 0
5 6 1 0 0 0 0 0 0 0 0 0 0 0 0 0 0 0 0 0 0 0 0 0 0 0 0 0 0 0 0 0 0 0 0 0 0 0 0 0 0 0 0 0 0 0 0
6 2 0 0 0 0 0 0 0 0 0 0 0 0 0 0 0 0 0 0 0 0 1 0 0 0 0 0 0 0 0 0 0 0 0 0 0 0 0 0 0 0 0 0 0 0 0
1 0 0 0 0 0 0 0 0 0 0 0 0 0 0 0 0 0 0 0 0 0 2 0 11 8 0 0 0 0 0 0 0 0 0 0 0 0 0 0 0 0 0 0 0 0 0
0 0 0 0 0 0 1 2 0 0 0 0 0 0 0 0 0 0 0 0 0 10 30 18 6 3 6 5 0 0 0 0 0 0 0 0 0 0 0 0 0 0 0 0 0 0 0
0 0 0 0 0 0 2 0 0 0 0 0 0 0 0 0 0 0 2 0 0 8 15 11 9 34 5 13 2 3 7 0 0 0 0 0 0 0 0 0 0 0 0 0 0 0 0
0 1 1 0 0 0 0 0 0 0 0 0 0 0 0 0 0 3 2 4 9 17 13 9 1 7 4 14 14 0 3 0 0 0 0 0 0 0 0 0 0 0 0 0 0 0 0
0 0 0 0 0 0 0 0 0 0 0 0 8 2 5 0 2 6 4 5 10 11 19 20 2 1 2 4 6 3 3 0 0 0 0 0 0 0 0 0 0 0 0 0 0 0 0
0 0 0 0 0 0 0 0 0 4 0 11 7 6 9 9 1 3 7 10 13 7 5 9 9 0 5 3 5 2 0 2 0 0 0 0 0 0 0 0 0 0 0 0 0 0 0
0 0 0 0 0 0 0 0 0 6 1 11 21 13 23 1 13 8 7 9 10 14 16 7 10 6 2 0 2 3 0 0 0 0 0 0 0 0 0 0 0 0 0 0 0 0 0
0 0 0 0 0 0 0 0 3 20 0 23 9 11 4 0 8 3 4 12 6 9 11 7 11 8 9 0 0 0 0 0 0 0 0 0 0 0 0 0 0 0 0 0 0 0 0
0 0 0 0 0 0 0 1 8 15 32 8 24 2 4 0 7 2 12 13 15 6 3 5 0 1 2 0 1 2 0 0 0 0 0 0 0 0 0 0 0 0 0 0 0 0 0
0 0 0 0 0 0 0 4 12 25 57 23 16 21 6 0 1 4 8 10 9 8 8 15 11 3 0 6 12 2 14 3 0 13 0 0 0 0 0 0 0 0 0 0 0 0 0
0 0 0 0 0 0 0 5 7 27 52 38 9 14 2 1 0 4 2 9 3 2 4 13 10 14 10 15 13 10 11 14 0 0 15 0 0 0 0 0 0 0 0 0 0 0 0
0 0 0 0 0 0 3 2 7 22 37 37 1 0 2 2 0 2 5 3 9 16 8 12 4 11 12 10 15 15 10 20 11 16 27 24 1 0 0 0 0 0 0 0 6 0 0
0 0 0 0 0 2 2 4 7 8 15 25 17 1 1 2 0 0 2 5 6 7 12 5 4 16 10 14 15 2 2 4 4 5 16 3 9 18 0 0 0 0 0 0 0 0 0
CIN
0 0 0 0 0 0 0 0 0 0 0 0 0 0 0 0 0 0 0 0 0 0 0 0 0 0 0 0 0 0 0 0 0 0 0 0 0 0 0 0 -76 -95 -27 -38 -48 -36 -30
0 0 0 0 0 0 0 0 0 0 0 0 0 0 0 0 0 0 0 0 0 0 0 0 0 0 0 0 0 0 0 0 0 0 0 0 0 0 0 0 -32 0 -67 -37 -34 -38 -24
0 0 -1 0 0 0 0 0 0 0 0 0 0 0 0 0 0 0 0 0 0 0 0 0 0 0 0 0 0 0 0 0 0 0 0 0 0 0 0 0 0 0 -6 -58 -2 0 -20
0 0 0 0 0 0 0 0 0 0 0 0 0 0 0 0 0 0 0 0 0 0 0 0 0 0 0 0 0 0 0 0 0 0 0 0 0 0 0 0 0 0 0 0 0 0 -29
0 0 0 0 0 0 0 0 0 0 0 0 0 0 0 0 0 0 0 0 -1 0 0 0 0 0 0 0 0 0 0 0 0 0 0 0 0 0 0 0 0 0 0 0 0 -15 -27
0 0 0 0 0 0 0 0 0 0 0 0 0 0 0 0 0 0 0 0 0 0 0 0 0 0 0 0 0 0 0 0 0 0 0 0 0 0 0 0 0 0 0 0 -4 0 -50
0 0 0 0 0 0 0 0 0 0 0 0 0 0 0 0 0 0 0 0 0 0 0 0 0 0 0 0 0 0 0 0 0 0 0 0 0 0 0 0 0 0 0 0 0 -1 0
0 0 0 0 0 0 0 0 0 0 0 0 0 0 0 0 0 0 0 0 0 0 0 0 0 0 0 0 0 0 0 0 0 0 0 0 0 0 0 0 0 0 0 0 0 0 0
0 0 0 0 0 0 0 0 0 0 0 0 0 0 0 0 0 0 0 0 0 0 0 0 0 0 0 0 0 0 0 0 0 0 0 0 0 0 0 0 0 0 0 0 0 0 0
0 0 -1 0 0 0 0 0 0 0 0 0 0 0 0 0 0 0 0 0 0 0 0 0 0 0 0 0 0 0 0 0 0 0 0 0 0 0 0 0 0 0 0 0 0 0 0
0 0 0 -1 0 0 0 0 0 0 0 0 0 0 0 0 0 0 0 0 0 0 0 0 0 0 0 0 0 0 0 0 0 0 0 0 0 0 0 0 0 0 0 0 0 0 0
0 -1 0 0 0 0 0 -1 0 0 0 0 0 0 0 0 0 0 0 0 0 0 0 0 0 0 0 0 0 0 0 0 0 0 0 0 0 0 0 0 0 0 0 0 0 0 0
0 0 0 0 0 0 0 0 0 0 0 0 0 0 0 0 0 0 0 0 0 0 0 0 0 0 0 0 0 0 0 0 0 0 0 0 0 0 0 0 0 0 0 0 0 0 0
0 0 0 0 0 0 0 0 0 0 0 0 0 0 0 0 0 0 0 0 0 0 0 0 0 0 0 0 0 0 0 0 0 0 0 0 0 0 0 0 0 0 0 0 0 0 0
0 0 0 0 0 0 0 0 0 0 0 0 0 0 0 0 0 0 0 0 0 0 0 0 0 0 0 0 0 0 0 0 0 0 0 0 0 0 0 0 0 0 0 0 0 0 0
0 0 0 0 0 0 0 0 0 0 0 0 0 0 0 0 0 0 0 0 0 0 -2 0 0 0 0 0 0 0 0 0 0 0 0 0 0 0 0 0 0 0 0 0 0 0 0
0 0 0 0 0 0 0 0 0 0 0 0 0 0 0 0 0 0 0 0 0 0 -2 0 -3 -2 0 0 0 0 0 0 0 0 0 0 0 0 0 0 0 0 0 0 0 0 0
0 0 0 0 0 0 -1 -2 0 0 0 0 0 0 0 0 0 0 0 0 0 -2 -3 -1 -3 -4 -3 -2 0 0 0 0 0 0 0 0 0 0 0 0 0 0 0 0 0 0 0
0 0 0 0 0 0 -1 0 0 0 0 0 0 0 0 0 0 0 -3 0 0 -2 -1 -2 -5 -14 -15 -2 -1 -2 -1 0 0 0 0 0 0 0 0 0 0 0 0 0 0 0 0
0 0 0 0 0 0 0 0 0 0 0 0 0 0 0 0 -2 -2 -1 -3 -3 -5 -1 -2 -3 -3 -5 -3 -4 -4 -2 0 0 0 0 0 0 0 0 0 0 0 0 0 0 0 0
0 0 0 0 0 0 0 0 0 0 0 0 -1 -2 -1 0 -2 -1 -1 -2 -8 -3 -5 -4 -4 0 0 0 -8 -7 -6 0 0 0 0 0 0 0 0 0 0 0 0 0 0 0 0
0 0 0 0 0 0 0 0 0 -1 0 -1 0 0 -1 0 -1 -3 -3 -2 -2 -4 -4 -1 -2 0 0 0 0 0 0 -3 0 0 0 0 0 0 0 0 0 0 0 0 0 0 0
0 0 0 0 0 0 0 0 0 -4 -4 0 0 -1 0 -1 0 -2 -4 -2 -1 -1 -6 -2 -2 -4 -5 0 -3 -2 0 0 0 0 0 0 0 0 0 0 0 0 0 0 0 0 0
0 0 0 0 0 0 0 0 0 -1 0 0 -1 -1 0 0 -2 -4 -3 -1 -2 -2 -2 -1 -2 -2 -3 0 0 0 0 0 0 0 0 0 0 0 0 0 0 0 0 0 0 0 0
0 0 0 0 0 0 0 0 0 -1 -2 -2 0 0 0 0 -2 -1 -2 -1 -2 -2 -1 -1 0 -2 -1 0 -11 -4 0 0 0 0 0 0 0 0 0 0 0 0 0 0 0 0 0
0 0 0 0 0 0 0 0 0 0 -1 0 0 -1 0 0 0 0 0 -1 -1 -3 -2 -1 -2 -1 0 -2 -2 -14 -3 -7 -4 -2 0 0 0 0 0 0 0 0 0 0 0 0 0
0 0 0 0 0 0 0 0 0 0 -1 0 0 -4 0 0 0 0 0 -1 -3 -1 -3 -2 -2 -2 -2 -3 -2 -4 -7 -5 -4 -1 -4 0 0 0 0 0 0 0 0 0 0 0 0
0 0 0 0 0 0 0 -1 0 0 0 0 -2 -3 -2 0 0 0 0 0 -1 0 -1 -1 -2 -1 -1 0 -2 -2 -3 -2 -8 -4 -4 -3 -2 0 0 0 0 0 0 -1 -10 0 0
0 0 0 0 0 0 0 -1 0 0 0 0 0 0 0 0 0 0 -1 0 -1 -1 -1 0 -2 -1 0 0 0 0 -2 -2 -2 -4 -2 -4 -5 -6 0 0 0 0 0 0 0 0 0
Wind_Speed
33 33 33 33 34 34 35 35 35 36 36 37 37 38 38 39 39 39 39 38 37 36 34 32 26 20 20 11 7 16 11 9 12 15 18 15 16 10 16 8 7 18 22 23 24 22 20
33 33 34 34 35 35 35 36 36 37 37 38 39 39 40 40 40 40 40 39 39 38 35 30 17 13 19 12 19 8 5 10 13 13 16 18 13 14 28 17 4 9 32 26 25 24 19
34 34 34 35 35 36 36 37 38 38 39 40 41 41 41 41 41 41 40 40 38 35 33 19 9 11 20 26 17 8 8 11 16 16 13 11 13 11 18 19 14 29 22 19 20 5 5
34 35 35 36 36 37 38 38 39 40 41 42 42 43 43 44 43 42 41 39 34 31 23 12 7 12 23 17 18 12 5 7 13 17 13 8 12 19 18 21 17 19 18 10 6 1 3
35 36 36 37 37 38 39 40 41 42 43 44 44 45 45 45 46 43 42 36 27 24 18 10 12 17 24 16 13 7 3 4 11 14 9 8 19 11 23 33 32 14 12 7 5 5 2
35 36 37 38 38 39 40 41 43 43 44 45 46 46 47 47 47 43 42 31 22 19 17 19 18 20 22 19 11 7 6 4 9 8 11 10 10 17 16 28 30 14 20 12 8 4 4
35 36 37 38 39 40 41 42 43 44 45 46 47 48 48 49 48 42 38 28 29 24 24 25 22 23 20 18 11 8 8 8 5 11 9 21 16 27 18 38 43 33 27 29 13 8 8
36 37 38 39 39 41 42 43 44 45 46 47 48 49 49 50 46 39 33 26 25 29 40 35 33 36 28 20 19 10 12 10 12 15 11 13 29 16 21 30 37 39 33 38 24 15 20
38 38 39 39 40 41 43 44 45 46 47 48 49 50 50 49 39 34 29 26 30 33 36 36 29 30 27 22 24 15 19 15 16 19 26 16 12 24 18 17 24 27 34 38 34 22 28
38 38 39 40 40 41 43 44 46 47 48 48 49 50 50 48 31 35 28 35 33 28 37 34 27 26 20 20 32 20 19 19 21 22 18 40 14 20 22 29 21 21 32 38 36 32 33
38 39 39 40 41 42 43 43 44 46 47 49 49 50 48 36 34 32 37 36 30 23 41 22 22 15 17 23 20 24 18 24 25 24 21 18 17 13 31 25 24 46 27 30 39 42 41
38 39 40 41 41 41 42 43 43 43 45 47 48 49 43 31 31 34 37 34 21 30 41 27 22 23 21 26 28 19 23 27 32 32 31 39 26 22 32 21 31 27 31 29 32 40 51
38 39 39 39 40 40 41 42 42 42 42 43 45 43 34 33 37 39 36 27 32 38 24 29 29 27 31 28 30 25 30 34 34 33 32 30 43 29 24 17 16 19 22 18 38 50 51
37 37 37 38 38 40 40 40 41 41 41 41 44 35 28 30 36 35 32 28 41 31 33 36 34 38 33 27 31 31 30 39 41 35 31 35 39 26 21 20 16 26 26 24 40 33 45
36 36 36 37 39 39 40 41 43 43 42 41 36 31 27 34 32 29 30 35 38 32 34 36 38 35 32 29 29 32 35 38 41 38 42 33 43 23 27 23 19 20 42 34 36 32 33
34 33 35 36 38 40 41 41 41 41 41 39 33 28 30 35 27 23 29 33 33 32 36 35 37 29 34 33 34 32 31 29 37 38 34 42 39 30 29 27 36 29 21 25 44 43 42
32 33 33 35 38 39 41 40 42 39 40 34 28 26 31 34 21 25 29 31 35 34 34 34 36 38 37 36 33 33 30 26 26 30 33 37 36 30 27 34 30 30 28 29 33 41 38
31 31 32 33 33 35 36 38 39 40 41 33 30 26 31 29 25 26 30 31 31 32 32 36 39 40 38 34 35 32 31 26 25 31 36 34 34 35 36 34 36 32 31 25 32 35 47
31 31 32 31 32 32 32 34 39 40 37 32 30 24 24 24 27 30 28 31 29 29 29 28 31 32 34 38 33 30 28 23 23 25 30 30 41 40 34 34 36 45 36 35 33 37 46
29 34 31 31 29 28 30 32 35 39 34 28 27 26 24 20 21 26 29 27 29 27 25 25 26 30 36 42 35 32 30 26 25 26 28 31 37 46 46 34 37 43 43 40 36 57 48
28 34 32 29 26 26 28 32 32 36 31 24 24 23 23 25 22 21 20 20 27 27 25 25 23 23 26 35 38 39 34 32 28 25 27 30 41 38 40 33 32 37 46 43 49 46 56
27 32 32 27 29 29 28 31 28 33 29 20 23 21 19 20 18 17 17 17 22 26 28 26 25 25 27 30 35 33 33 31 32 29 29 29 36 37 45 38 36 40 40 43 47 54 53
25 26 28 29 28 29 28 28 23 28 29 21 18 16 15 18 18 18 16 17 17 29 25 22 27 29 28 28 30 35 37 37 39 37 34 34 36 39 48 41 43 52 50 46 45 44 44
23 21 21 24 26 27 27 25 22 20 22 17 14 14 14 18 16 16 12 9 7 29 28 28 28 29 27 28 31 34 37 38 39 39 36 36 38 39 41 39 57 48 37 42 50 46 43
21 21 19 21 22 23 25 24 21 18 16 15 11 10 11 16 14 13 11 10 5 25 27 27 27 25 26 28 28 28 31 33 37 39 39 38 39 41 48 49 38 36 32 35 37 42 40
20 20 18 20 20 22 24 24 22 20 16 12 8 5 7 12 14 12 13 7 4 21 25 22 21 22 22 23 26 32 32 29 33 32 34 36 39 44 40 53 55 36 40 33 32 44 28
18 19 21 19 21 23 24 24 22 20 14 7 7 4 7 8 8 5 10 6 8 8 15 21 20 19 18 21 28 30 33 27 35 37 35 39 43 50 51 52 45 39 23 26 43 31 24
19 20 19 19 21 23 22 23 21 18 12 6 3 4 5 5 4 2 4 4 7 10 14 19 19 9 19 20 22 25 30 27 32 33 33 37 43 49 52 57 64 36 36 38 28 31 30
19 19 19 19 21 21 21 19 18 15 10 3 5 6 7 6 4 5 5 11 14 15 14 14 17 15 17 18 17 20 26 27 30 37 29 44 43 43 46 50 43 36 42 39 38 39 38
Wind_Direction
4 2 359 356 353 351 348 346 343 340 337 333 330 326 323 319 314 309 305 299 292 284 276 271 303 321 316 341 183 328 10 72 129 149 152 156 165 211 249 262 282 161 242 222 194 207 191
3 -0 357 355 353 352 351 348 345 341 338 335 331 327 324 320 315 311 307 302 296 288 280 288 315 329 305 317 303 343 13 108 133 150 157 156 174 232 242 262 231 276 216 232 238 217 180
5 1 359 356 353 351 349 346 344 342 339 335 331 327 324 318 314 309 306 303 300 298 295 309 315 317 298 219 310 350 128 136 141 150 164 168 250 193 259 260 266 243 258 265 264 306 342
5 1 359 357 354 352 349 346 343 340 336 333 331 327 323 320 316 310 308 304 306 315 327 329 315 308 293 311 291 301 121 143 146 153 158 206 255 174 259 263 265 258 265 273 265 167 353
4 2 360 357 354 351 348 345 342 339 337 333 331 328 323 320 317 312 311 311 321 333 343 3 321 297 293 309 289 273 172 188 154 152 153 244 251 206 179 236 235 249 249 192 266 157 323
7 4 0 357 355 352 349 346 343 341 338 334 331 328 325 321 318 313 313 319 323 329 326 316 312 295 289 296 300 213 233 244 161 152 143 164 229 241 233 181 182 238 245 250 242 194 233
11 8 5 2 359 355 352 349 346 343 340 337 333 329 326 322 320 316 319 321 310 306 301 291 296 288 295 297 298 245 196 172 201 168 173 166 179 188 209 191 220 238 247 244 253 273 263
9 7 4 2 1 355 352 350 348 345 342 339 335 331 328 324 321 324 322 321 320 307 288 284 280 272 274 292 273 244 186 221 196 186 179 167 189 190 243 241 238 236 243 235 255 267 272
5 3 3 2 360 356 351 348 346 344 342 340 337 333 328 325 325 331 330 323 318 310 289 285 281 276 271 257 262 238 193 214 206 191 181 183 259 182 186 220 238 245 244 236 244 264 261
5 4 3 1 359 357 354 350 347 344 342 339 337 334 330 326 330 329 324 321 317 312 286 282 281 280 266 257 257 251 212 210 239 197 198 203 239 174 178 188 195 225 243 243 246 250 250
6 4 2 1 359 358 356 354 352 349 345 342 339 335 332 337 329 326 318 318 315 306 277 288 280 288 274 244 268 237 219 217 244 246 213 214 211 214 187 185 182 217 250 252 248 245 250
6 5 3 1 1 1 359 357 355 354 352 349 345 341 340 343 332 325 319 316 310 283 270 279 282 273 269 254 258 251 230 230 247 248 247 244 254 242 247 254 194 249 246 253 255 250 235
6 6 7 7 6 6 6 4 2 0 359 356 352 350 352 348 331 324 318 306 284 269 292 277 274 275 267 259 248 249 232 225 234 236 237 245 241 251 248 230 241 189 177 244 245 234 223
10 10 11 11 11 9 9 7 4 3 2 359 354 357 1 353 345 332 317 294 272 280 276 284 279 273 260 257 254 246 242 235 235 238 245 243 246 227 222 216 209 188 185 185 232 251 230
13 14 14 13 9 8 9 7 2 1 1 1 0 3 4 355 355 345 312 283 276 281 285 281 278 264 254 259 259 251 243 244 237 235 241 242 244 231 241 229 218 207 195 191 236 247 254
16 17 15 13 10 8 7 7 6 5 3 4 5 8 7 359 6 357 312 287 283 286 285 279 266 266 256 258 255 251 240 255 246 230 249 246 246 242 234 234 239 244 228 209 206 214 233
18 17 16 14 11 10 8 11 7 8 5 9 10 10 8 0 11 355 317 301 296 292 283 269 262 261 261 260 254 249 248 255 250 237 247 242 244 238 233 230 226 229 239 222 235 210 226
17 19 18 18 17 15 13 13 12 8 7 14 11 13 10 11 8 359 331 318 309 296 288 273 262 259 258 260 253 249 245 251 256 253 241 239 244 241 238 238 238 236 237 222 242 195 218
17 16 14 18 16 15 16 15 12 10 11 12 12 13 20 22 9 353 348 323 317 306 293 277 266 263 258 251 249 249 250 255 261 255 240 241 238 236 241 239 235 236 233 239 240 247 217
16 6 13 14 17 17 15 15 13 9 11 15 14 15 20 31 27 9 350 334 314 314 302 291 274 271 257 248 247 248 250 253 260 257 254 246 241 236 236 241 238 236 235 237 237 226 228
15 5 8 14 15 14 13 11 12 9 13 16 18 20 21 13 17 13 10 356 318 309 307 295 269 277 265 246 246 247 253 254 253 257 253 247 237 241 241 245 244 242 236 236 239 242 221
14 6 6 11 8 7 8 7 11 9 13 17 10 16 19 8 20 18 17 13 338 309 300 290 273 284 273 257 250 250 252 250 249 251 250 249 239 243 239 243 245 243 242 241 243 241 243
9 8 6 4 4 2 2 2 7 8 13 11 16 20 24 16 16 17 23 17 352 301 295 291 285 279 273 266 263 260 258 255 252 251 249 245 243 243 237 241 246 243 240 243 247 247 248
4 2 1 1 359 358 357 357 359 4 10 4 6 15 18 8 15 14 12 14 23 277 286 274 285 276 279 285 279 264 255 252 250 247 246 244 242 243 239 240 239 245 249 250 247 250 253
357 355 351 354 352 351 352 353 352 352 358 359 3 12 16 6 17 11 20 24 36 272 270 265 279 285 280 281 266 259 247 246 246 245 243 242 243 241 237 239 246 244 247 251 251 252 254
352 349 343 346 341 346 348 349 350 350 349 352 358 24 18 8 13 29 24 28 46 252 260 251 271 267 284 275 258 247 244 247 242 241 242 240 241 240 241 238 238 249 254 254 260 252 264
340 340 343 335 338 343 346 348 348 349 346 346 13 55 42 16 14 28 41 65 71 155 212 253 284 274 285 271 255 249 247 255 246 241 239 235 239 238 239 241 244 248 260 260 243 254 271
334 333 325 325 336 344 345 348 348 350 346 348 28 108 86 45 22 97 191 151 159 164 186 228 246 207 273 276 264 255 252 254 251 250 246 240 240 240 241 241 240 253 256 247 263 266 270
326 330 321 326 339 344 346 344 347 343 347 317 53 102 132 87 82 91 169 199 197 194 187 171 180 174 198 280 283 273 258 259 257 251 253 246 249 247 244 244 253 258 254 262 266 267 268